Miscellaneous Local Product
Issued by NWS North Platte, NE

Home | Current Version | Previous Version | Text Only | Print | Product List | Glossary On
Versions: 1 2 3 4 5 6 7 8 9 10 11 12 13 14 15 16 17 18 19 20 21 22 23 24 25 26 27 28 29 30 31 32 33 34 35 36 37 38 39 40 41 42 43 44 45 46 47 48 49 50
158
AXUS43 KLBF 301110
MISLBF


WESTERN AND NORTH CENTRAL NEBRASKA HOURLY WEATHER ROUNDUP
NATIONAL WEATHER SERVICE NORTH PLATTE NE
600 AM CDT SAT JUL 30 2016

NOTE: "FAIR" INDICATES FEW OR NO CLOUDS BELOW 12,000 FEET WITH NO
SIGNIFICANT WEATHER AND/OR OBSTRUCTIONS TO VISIBILITY.

NOTE: STATIONS NOT REPORTING VARIABLES SUCH AS SKY/WEATHER OR
PRESSURE ARE PROVIDED BY RAWS AND APRS NETWORKS AND ARE NOT UNDER
NATIONAL WEATHER SERVICE QUALITY CONTROL.

...OBSERVATIONS IN AND NEAR THE EASTERN PANHANDLE OF NEBRASKA...

CITY           SKY/WX    TMP DP  RH WIND       PRES   REMARKS
PINE RIDGE     CLEAR     52  52 100 E5        29.99F
CHADRON        CLEAR     58  55  90 SE3       29.97F
ALLIANCE       CLOUDY    55  53  93 CALM      30.02F
SIDNEY         PTCLDY    66  60  81 N6        30.03F
CRESCENT LAKE    N/A     59  56  91 CALM        N/A
$$

...OBSERVATIONS IN NORTHERN NEBRASKA AND FAR SOUTHERN SOUTH DAKOTA...

CITY           SKY/WX    TMP DP  RH WIND       PRES   REMARKS
WINNER         RAIN      65  62  90 S13       29.98R FOG
VALENTINE      CLOUDY    65  60  84 SE13G21   30.00F
THEDFORD       CLEAR     63  62  96 E5        30.02R
AINSWORTH      CLOUDY    60  59  95 E17       30.04R
O`NEILL        CLOUDY    64  60  88 S5        30.03R
ORD            TSTM      60  56  86 SW8       30.02F FOG
BROKEN BOW     CLOUDY    64  63  96 SE3       30.01F
VALENTINE NWR    N/A     60  59  97 SE3         N/A
BUTTE            N/A     61  58  90 CALM        N/A
HALSEY           N/A     62  61  97 SE3         N/A
EWING            N/A     61  60  96 CALM        N/A
$$

...OBSERVATIONS IN SOUTHWEST NEBRASKA AND FAR NORTHEAST COLORADO...

CITY           SKY/WX    TMP DP  RH WIND       PRES   REMARKS
WRAY           FAIR      63  63 100 E5        30.04S
HOLYOKE        FAIR      63  61  94 S3        30.04R
IMPERIAL       CLOUDY    62  60  93 S7        30.02R
OGALLALA       CLEAR     65  62  89 CALM      30.01S
NORTH PLATTE   CLEAR     62  60  93 E6        30.00F
MCCOOK         CLEAR     65  63  93 SE7       30.00S
LEXINGTON      CLEAR     65  62  91 SE6       30.00F
STAPLETON        N/A     62  60  95 CALM        N/A
GOTHENBURG       N/A     65  60  82 CALM        N/A
CALLAWAY         N/A     62  61  97 SE6         N/A
$$

...OBSERVATIONS IN CENTRAL LINCOLN COUNTY AREA...

CITY           SKY/WX    TMP DP  RH WIND       PRES   REMARKS
N.P. AIRPORT   CLEAR     62  60  93 E6        30.00F
N.P. DOWNTOWN    N/A     64  62  93 CALM        N/A
N.P. HILLCREST   N/A     63  62  95 SE3         N/A
$$

...SOME OBSERVATIONS FROM AROUND THE REGION...

CITY           SKY/WX    TMP DP  RH WIND       PRES   REMARKS
DENVER         PTCLDY    66  57  72 S25G31    30.06F
LARAMIE        CLOUDY    55  53  93 S9        30.16F
CHEYENNE       CLOUDY    60  58  92 S7        30.11F
SCOTTSBLUFF    CLEAR     60  57  89 W3        30.02S
RAPID CITY     CLEAR     53  51  93 NW3       29.95F
BISMARCK       TSTM      64  63  96 NE13      29.93F
PIERRE         CLEAR     62  57  83 E9        29.93F
SIOUX FALLS    PTCLDY    54  52  93 NE3       30.03S
OMAHA          PTCLDY    62  59  90 CALM      30.01F
GRAND ISLAND   LGT RAIN  64  61  90 S10       30.01F
KANSAS CITY    PTCLDY    63  60  90 NE5       30.00F
WICHITA        MOCLDY    73  69  87 SE5       29.99S
OKLAHOMA CITY  PTCLDY    73  70  90 S6        29.96S
DALLAS         PTCLDY    82  70  66 SW10      29.97R
AMARILLO       MOCLDY    70  57  63 NE12      30.08R
DODGE CITY     LGT RAIN  69  66  90 S5        30.03R
HAYS           CLOUDY    70  61  73 S7        30.00F
GOODLAND       CLEAR     64  61  90 S5        30.03F
$$




USA.gov is the U.S. government's official web portal to all federal, state and local government web resources and services.